Orbital Elements at Epoch 2459200.5 (2020-Dec-17.0) TDB
Reference: JPL 16 (heliocentric ecliptic J2000)
Element | Value | Uncertainty (1-sigma) | Units |
e | .1077612808286501 | 7.3517e-08 | |
a | 2.287299885338872 | 1.091e-08 | au |
q | 2.040817520055531 | 1.7283e-07 | au |
i | 10.22213899813304 | 5.2496e-06 | deg |
node | 258.6506855829167 | 3.4723e-05 | deg |
peri | 146.7366937568117 | 4.1888e-05 | deg |
M | 357.4024871335068 | 2.2412e-05 | deg |
tp | 2459209.616713267231 (2020-Dec-26.11671327) | 7.8672e-05 | TDB |
period | 1263.522817746142 3.46 | 9.0402e-06 2.475e-08 | d yr |
n | .2849176880257407 | 2.0385e-09 | deg/d |
Q | 2.533782250622213 | 1.2086e-08 | au |
|
| | Orbit Determination Parameters
Additional Information
|